Onweer radar Meer informatie blitzortung!


Regen radar Meer informatie rain snow radar


Bezoek onze andere website:

Template documentation
and downloads

And another site



Extreme hitte van: 23-07-2019 10:00 tot: 25-07-2019 10:00 waarschuwing voor: Extreme hitte niveau: Oranje info button
Aanhoudende hitte, maximumtemperaturen vandaag 30-34°C, woensdag en donderdag 32-38°C.Minimumtemperaturen rond 20°C.Het Nationaal Hitteplan is geactiveerd.Er is sprake van aanhoudende hitte met weinig afkoeling tijdens de nachten.Besteed extra zorg en aandacht aan kwetsbare mensen in uw omgeving.Neem maatregelen: drink voldoende.Houd uzelf en uw woning koel.Beperk lichamelijke inspanning.Neem water mee op reis.

Select another period ( hide this area )

Eenheden Periode Custom range Directly to
Metrisch Engels Beide
Dagelijkse Wekelijkse Maandelijkse Jaarlijkse
use both date-selectors for a custom range
previous Dag
With this date

WeatherUnderground graphs for this period ( click here )


Dagelijkse Samenvatting Dinsdag 23 juli 2019
Tijd Temp. ( °C ) Dew pt. ( °C ) Wind ( km/h ) van Windvlaag ( km/h ) Luchtdruk ( hPa ) Humid.( % ) Rainrate ( cm )
Hoog32,4 13,0 7,9 NNW ( 40/148 ) 12,9 1022,9 69 -
Gemiddeld21,9 11,2 1,0 Kalm #109/154 2,5 1021,7 54 -
Laag15,9 9,8 -   0,0 1019,5 26 -
Dagelijkse Tabular details for Dinsdag 23 juli 2019
Tijd Temp. ( °C ) Dew pt. ( °C ) Wind ( km/h ) van Windvlaag ( km/h ) Luchtdruk ( hPa ) Humid.( % ) Rainrate ( cm )
00:01 20,8 12,0   Kalm   1022,6 57 -
00:06 20,7 12,1   Kalm   1022,6 58 -
00:12 20,7 12,1   Kalm   1022,6 58 -
00:17 20,6 12,3   Kalm   1022,9 59 -
00:22 20,4 12,1   Kalm   1022,9 59 -
00:27 20,3 12,0   Kalm   1022,9 59 -
00:32 20,2 12,2   Kalm   1022,6 60 -
00:37 20,1 12,1   Kalm   1022,6 60 -
00:42 20,1 12,1   Kalm   1022,6 60 -
00:48 19,9 12,2   Kalm   1022,6 61 -
00:53 19,8 12,1   Kalm   1022,6 61 -
00:58 19,7 12,0   Kalm   1022,6 61 -
01:03 19,7 12,0   Kalm   1022,9 61 -
01:09 19,6 12,1   Kalm   1022,6 62 -
01:14 19,6 12,1   Kalm   1022,9 62 -
01:24 19,3 11,8   Kalm   1022,6 62 -
01:29 19,2 12,0   Kalm   1022,6 63 -
01:34 19,0 12,0   Kalm   1022,6 64 -
01:40 19,0 12,0   Kalm   1022,6 64 -
01:45 18,9 11,7   Kalm   1022,6 63 -
01:50 18,7 11,5   Kalm   1022,6 63 -
01:55 18,7 11,8   Kalm   1022,6 64 -
02:00 18,6 11,7   Kalm   1022,6 64 -
02:05 18,6 11,7   Kalm   1022,6 64 -
02:10 18,6 11,7   Kalm   1022,6 64 -
02:15 18,6 11,7   Kalm   1022,6 64 -
02:21 18,4 11,5   Kalm   1022,2 64 -
02:26 18,3 11,6   Kalm   1022,2 65 -
02:31 18,3 11,6   Kalm   1022,2 65 -
02:36 18,3 11,6   Kalm   1022,2 65 -
02:41 18,2 11,5   Kalm   1022,2 65 -
02:46 18,1 11,4   Kalm   1022,2 65 -
02:51 18,1 11,4   Kalm   1022,2 65 -
02:56 18,1 11,4   Kalm   1022,2 65 -
03:02 17,9 11,2   Kalm   1022,2 65 -
03:07 17,9 11,2   Kalm   1022,2 65 -
03:12 17,8 11,1   Kalm   1022,2 65 -
03:17 17,8 11,1   Kalm   1022,2 65 -
03:22 17,9 11,2   Kalm   1022,2 65 -
03:28 17,8 11,1   Kalm   1022,2 65 -
03:33 17,8 11,1   Kalm   1022,2 65 -
03:38 17,4 10,8   Kalm   1022,2 65 -
03:43 17,3 10,9   Kalm   1022,6 66 -
03:48 17,1 10,5   Kalm   1022,2 65 -
03:53 17,1 10,7   Kalm   1022,2 66 -
03:58 17,1 10,7   Kalm   1022,2 66 -
04:03 17,1 10,7   Kalm   1022,2 66 -
04:08 17,2 10,8   Kalm   1022,2 66 -
04:13 17,1 10,5   Kalm   1022,2 65 -
04:18 17,0 10,6   Kalm   1022,2 66 -
04:24 16,8 10,4   Kalm   1022,2 66 -
04:29 16,7 10,3   Kalm   1022,2 66 -
04:34 16,8 10,4   Kalm   1022,2 66 -
04:39 16,8 10,4   Kalm   1022,2 66 -
04:44 16,8 10,4   Kalm   1022,2 66 -
04:49 16,8 10,4   Kalm   1022,2 66 -
04:54 16,7 10,3   Kalm   1022,2 66 -
04:59 16,6 10,2   Kalm   1022,2 66 -
05:04 16,4 10,3   Kalm   1022,2 67 -
05:10 16,3 10,2   Kalm   1022,2 67 -
05:15 16,2 10,1   Kalm   1022,2 67 -
05:20 16,3 10,2   Kalm   1022,2 67 -
05:25 16,3 10,2   Kalm   1021,9 67 -
05:30 16,2 10,1   Kalm   1021,9 67 -
05:35 16,2 10,1   Kalm   1021,9 67 -
05:41 16,1 10,0   Kalm   1021,9 67 -
05:46 16,1 10,0   Kalm   1021,9 67 -
05:51 16,1 10,0   Kalm   1021,9 67 -
05:56 16,0 9,9   Kalm   1021,9 67 -
06:01 16,0 9,9   Kalm   1021,9 67 -
06:06 16,1 10,2   Kalm   1021,9 68 -
06:11 16,1 10,2   Kalm   1021,9 68 -
06:16 16,1 10,2   Kalm   1021,9 68 -
06:21 15,9 10,0   Kalm   1021,9 68 -
06:26 16,1 10,4   Kalm   1021,9 69 -
06:31 16,2 10,5   Kalm   1021,9 69 -
06:36 16,3 10,6   Kalm   1021,9 69 -
06:42 16,4 10,7   Kalm   1021,9 69 -
06:47 16,6 10,7   Kalm   1021,9 68 -
06:52 16,8 10,9   Kalm   1021,9 68 -
06:57 17,3 11,3   Kalm   1021,9 68 -
07:02 17,6 11,2   Kalm   1021,9 66 -
07:07 17,6 10,7   Kalm   1021,9 64 -
07:12 17,6 10,7   Kalm   1021,9 64 -
07:17 17,8 11,1   Kalm   1021,9 65 -
07:22 17,9 11,0   Kalm   1021,9 64 -
07:27 18,2 11,3   Kalm   1021,9 64 -
07:32 18,7 11,5   Kalm   1021,9 63 -
07:37 19,1 11,4   Kalm   1021,6 61 -
07:42 19,3 11,6   Kalm   1021,6 61 -
07:47 19,7 11,7   Kalm   1021,6 60 -
07:52 20,2 11,7   Kalm   1021,6 58 -
07:57 20,4 11,9   Kalm   1021,6 58 -
08:02 20,8 12,0   Kalm   1021,6 57 -
08:07 21,1 12,0   Kalm 3,2 1021,6 56 -
08:12 21,4 12,3   Kalm 1,6 1021,6 56 -
08:17 21,8 12,4   Kalm   1021,6 55 -
08:22 22,1 12,6 1,4 WZW 1,6 1021,6 55 -
08:27 22,4 12,6   Kalm   1021,6 54 -
08:32 22,7 12,6 1,4 NNW 3,2 1021,6 53 -
08:37 22,8 12,4 1,4 NNO 6,4 1021,6 52 -
08:42 23,2 12,8 1,4 NNW 3,2 1021,6 52 -
08:47 23,3 12,6   Kalm 3,2 1021,6 51 -
08:52 23,7 13,0 1,4 Noorden 1,6 1021,6 51 -
08:57 23,9 12,2   Kalm 6,4 1021,6 48 -
09:02 24,1 12,1 1,4 Noorden 6,4 1021,6 47 -
09:07 24,5 11,8 6,4 ONO 8,0 1021,6 45 -
09:12 25,1 12,0 1,4 ONO 3,2 1021,6 44 -
09:17 25,4 11,9   Kalm 3,2 1021,2 43 -
09:22 25,6 11,7 1,4 Noorden 6,4 1021,2 42 -
09:28 25,9 11,6   Kalm 6,4 1021,2 41 -
09:33 26,1 11,8   Kalm 3,2 1021,2 41 -
09:38 26,3 12,4   Kalm 8,0 1021,2 42 -
09:43 26,7 11,6   Kalm 3,2 1021,2 39 -
09:48 26,8 12,4 4,7 OZO 6,4 1021,2 41 -
09:53 26,8 11,3 3,2 NNO 8,0 1021,2 38 -
09:58 27,1 11,6 4,7 NNW 6,4 1021,2 38 -
10:03 27,7 11,7 3,2 NNW 6,4 1021,2 37 -
10:08 27,8 10,9 1,4 Noorden 8,0 1021,2 35 -
10:13 28,2 11,7   Kalm 3,2 1020,9 36 -
10:18 27,9 11,9 3,2 Noorden 3,2 1021,2 37 -
10:23 28,1 11,2 1,4 NNO 3,2 1020,9 35 -
10:28 28,8 11,8 4,7 NNW 6,4 1020,9 35 -
10:33 29,1 11,2 4,7 NW 8,0 1020,9 33 -
10:38 29,2 11,3 6,4 NW 6,4 1020,9 33 -
10:43 29,3 10,9 1,4 NNW 9,7 1020,9 32 -
10:48 29,3 11,4 1,4 Noorden 11,3 1020,9 33 -
10:53 29,4 11,0 3,2 NNW 8,0 1020,9 32 -
10:58 29,7 11,2 4,7 NW 4,8 1020,9 32 -
11:03 29,8 11,8 1,4 NNO 8,0 1020,5 33 -
11:09 30,0 10,5 3,2 NNW 8,0 1020,5 30 -
11:14 30,3 10,8 3,2 Noorden 11,3 1020,5 30 -
11:19 30,4 11,4   Kalm 4,8 1020,5 31 -
11:24 30,6 10,5 7,9 NNW 8,0 1020,5 29 -
11:29 31,0 9,8 1,4 NO 8,0 1020,5 27 -
11:34 31,2 10,5 3,2 NNO 8,0 1020,5 28 -
11:39 31,3 10,6 1,4 NO 6,4 1020,5 28 -
11:44 31,1 10,4 3,2 Noorden 11,3 1020,2 28 -
11:49 30,9 10,8 6,4 NNO 12,9 1020,2 29 -
11:54 31,2 10,5 3,2 Noorden 8,0 1020,2 28 -
11:59 31,3 10,1 7,9 NW 9,7 1020,2 27 -
12:04 31,2 10,5 3,2 ONO 8,0 1020,2 28 -
12:09 31,6 10,9 1,4 OZO 3,2 1020,2 28 -
12:14 31,9 10,6 3,2 NW 6,4 1020,2 27 -
12:19 31,7 11,0 3,2 NNO 8,0 1020,2 28 -
12:24 31,8 11,0   Kalm 4,8 1020,2 28 -
12:29 31,8 9,9 1,4 ONO 6,4 1019,9 26 -
12:34 32,1 10,7 3,2 NNW 8,0 1019,9 27 -
12:39 32,4 10,4   Kalm 9,7 1019,9 26 -
12:44 31,7 11,5 1,4 NNW 11,3 1019,9 29 -
12:49 32,0 11,2 6,4 NNO 9,7 1019,9 28 -
12:54 32,2 11,4 4,7 NNW 6,4 1019,9 28 -
12:59 31,9 11,1 7,9 NW 9,7 1019,9 28 -
13:05 32,1 11,8 3,2 Noorden 8,0 1019,5 29 -
Dagelijkse Samenvatting Dinsdag 23 juli 2019
Tijd Temp. ( °C ) Dew pt. ( °C ) Wind ( km/h ) van Windvlaag ( km/h ) Luchtdruk ( hPa ) Humid.( % ) Rainrate ( cm )
Hoog32,4 13,0 7,9 NNW ( 40/148 ) 12,9 1022,9 69 -
Gemiddeld21,9 11,2 1,0 Kalm #109/154 2,5 1021,7 54 -
Laag15,9 9,8 -   0,0 1019,5 26 -
Dagelijkse Tabular details for Dinsdag 23 juli 2019
Tijd Temp. ( °C ) Dew pt. ( °C ) Wind ( km/h ) van Windvlaag ( km/h ) Luchtdruk ( hPa ) Humid.( % ) Rainrate ( cm )
00:01 20,8 12,0   Kalm   1022,6 57 -
00:06 20,7 12,1   Kalm   1022,6 58 -
00:12 20,7 12,1   Kalm   1022,6 58 -
00:17 20,6 12,3   Kalm   1022,9 59 -
00:22 20,4 12,1   Kalm   1022,9 59 -
00:27 20,3 12,0   Kalm   1022,9 59 -
00:32 20,2 12,2   Kalm   1022,6 60 -
00:37 20,1 12,1   Kalm   1022,6 60 -
00:42 20,1 12,1   Kalm   1022,6 60 -
00:48 19,9 12,2   Kalm   1022,6 61 -
00:53 19,8 12,1   Kalm   1022,6 61 -
00:58 19,7 12,0   Kalm   1022,6 61 -
01:03 19,7 12,0   Kalm   1022,9 61 -
01:09 19,6 12,1   Kalm   1022,6 62 -
01:14 19,6 12,1   Kalm   1022,9 62 -
01:24 19,3 11,8   Kalm   1022,6 62 -
01:29 19,2 12,0   Kalm   1022,6 63 -
01:34 19,0 12,0   Kalm   1022,6 64 -
01:40 19,0 12,0   Kalm   1022,6 64 -
01:45 18,9 11,7   Kalm   1022,6 63 -
01:50 18,7 11,5   Kalm   1022,6 63 -
01:55 18,7 11,8   Kalm   1022,6 64 -
02:00 18,6 11,7   Kalm   1022,6 64 -
02:05 18,6 11,7   Kalm   1022,6 64 -
02:10 18,6 11,7   Kalm   1022,6 64 -
02:15 18,6 11,7   Kalm   1022,6 64 -
02:21 18,4 11,5   Kalm   1022,2 64 -
02:26 18,3 11,6   Kalm   1022,2 65 -
02:31 18,3 11,6   Kalm   1022,2 65 -
02:36 18,3 11,6   Kalm   1022,2 65 -
02:41 18,2 11,5   Kalm   1022,2 65 -
02:46 18,1 11,4   Kalm   1022,2 65 -
02:51 18,1 11,4   Kalm   1022,2 65 -
02:56 18,1 11,4   Kalm   1022,2 65 -
03:02 17,9 11,2   Kalm   1022,2 65 -
03:07 17,9 11,2   Kalm   1022,2 65 -
03:12 17,8 11,1   Kalm   1022,2 65 -
03:17 17,8 11,1   Kalm   1022,2 65 -
03:22 17,9 11,2   Kalm   1022,2 65 -
03:28 17,8 11,1   Kalm   1022,2 65 -
03:33 17,8 11,1   Kalm   1022,2 65 -
03:38 17,4 10,8   Kalm   1022,2 65 -
03:43 17,3 10,9   Kalm   1022,6 66 -
03:48 17,1 10,5   Kalm   1022,2 65 -
03:53 17,1 10,7   Kalm   1022,2 66 -
03:58 17,1 10,7   Kalm   1022,2 66 -
04:03 17,1 10,7   Kalm   1022,2 66 -
04:08 17,2 10,8   Kalm   1022,2 66 -
04:13 17,1 10,5   Kalm   1022,2 65 -
04:18 17,0 10,6   Kalm   1022,2 66 -
04:24 16,8 10,4   Kalm   1022,2 66 -
04:29 16,7 10,3   Kalm   1022,2 66 -
04:34 16,8 10,4   Kalm   1022,2 66 -
04:39 16,8 10,4   Kalm   1022,2 66 -
04:44 16,8 10,4   Kalm   1022,2 66 -
04:49 16,8 10,4   Kalm   1022,2 66 -
04:54 16,7 10,3   Kalm   1022,2 66 -
04:59 16,6 10,2   Kalm   1022,2 66 -
05:04 16,4 10,3   Kalm   1022,2 67 -
05:10 16,3 10,2   Kalm   1022,2 67 -
05:15 16,2 10,1   Kalm   1022,2 67 -
05:20 16,3 10,2   Kalm   1022,2 67 -
05:25 16,3 10,2   Kalm   1021,9 67 -
05:30 16,2 10,1   Kalm   1021,9 67 -
05:35 16,2 10,1   Kalm   1021,9 67 -
05:41 16,1 10,0   Kalm   1021,9 67 -
05:46 16,1 10,0   Kalm   1021,9 67 -
05:51 16,1 10,0   Kalm   1021,9 67 -
05:56 16,0 9,9   Kalm   1021,9 67 -
06:01 16,0 9,9   Kalm   1021,9 67 -
06:06 16,1 10,2   Kalm   1021,9 68 -
06:11 16,1 10,2   Kalm   1021,9 68 -
06:16 16,1 10,2   Kalm   1021,9 68 -
06:21 15,9 10,0   Kalm   1021,9 68 -
06:26 16,1 10,4   Kalm   1021,9 69 -
06:31 16,2 10,5   Kalm   1021,9 69 -
06:36 16,3 10,6   Kalm   1021,9 69 -
06:42 16,4 10,7   Kalm   1021,9 69 -
06:47 16,6 10,7   Kalm   1021,9 68 -
06:52 16,8 10,9   Kalm   1021,9 68 -
06:57 17,3 11,3   Kalm   1021,9 68 -
07:02 17,6 11,2   Kalm   1021,9 66 -
07:07 17,6 10,7   Kalm   1021,9 64 -
07:12 17,6 10,7   Kalm   1021,9 64 -
07:17 17,8 11,1   Kalm   1021,9 65 -
07:22 17,9 11,0   Kalm   1021,9 64 -
07:27 18,2 11,3   Kalm   1021,9 64 -
07:32 18,7 11,5   Kalm   1021,9 63 -
07:37 19,1 11,4   Kalm   1021,6 61 -
07:42 19,3 11,6   Kalm   1021,6 61 -
07:47 19,7 11,7   Kalm   1021,6 60 -
07:52 20,2 11,7   Kalm   1021,6 58 -
07:57 20,4 11,9   Kalm   1021,6 58 -
08:02 20,8 12,0   Kalm   1021,6 57 -
08:07 21,1 12,0   Kalm 3,2 1021,6 56 -
08:12 21,4 12,3   Kalm 1,6 1021,6 56 -
08:17 21,8 12,4   Kalm   1021,6 55 -
08:22 22,1 12,6 1,4 WZW 1,6 1021,6 55 -
08:27 22,4 12,6   Kalm   1021,6 54 -
08:32 22,7 12,6 1,4 NNW 3,2 1021,6 53 -
08:37 22,8 12,4 1,4 NNO 6,4 1021,6 52 -
08:42 23,2 12,8 1,4 NNW 3,2 1021,6 52 -
08:47 23,3 12,6   Kalm 3,2 1021,6 51 -
08:52 23,7 13,0 1,4 Noorden 1,6 1021,6 51 -
08:57 23,9 12,2   Kalm 6,4 1021,6 48 -
09:02 24,1 12,1 1,4 Noorden 6,4 1021,6 47 -
09:07 24,5 11,8 6,4 ONO 8,0 1021,6 45 -
09:12 25,1 12,0 1,4 ONO 3,2 1021,6 44 -
09:17 25,4 11,9   Kalm 3,2 1021,2 43 -
09:22 25,6 11,7 1,4 Noorden 6,4 1021,2 42 -
09:28 25,9 11,6   Kalm 6,4 1021,2 41 -
09:33 26,1 11,8   Kalm 3,2 1021,2 41 -
09:38 26,3 12,4   Kalm 8,0 1021,2 42 -
09:43 26,7 11,6   Kalm 3,2 1021,2 39 -
09:48 26,8 12,4 4,7 OZO 6,4 1021,2 41 -
09:53 26,8 11,3 3,2 NNO 8,0 1021,2 38 -
09:58 27,1 11,6 4,7 NNW 6,4 1021,2 38 -
10:03 27,7 11,7 3,2 NNW 6,4 1021,2 37 -
10:08 27,8 10,9 1,4 Noorden 8,0 1021,2 35 -
10:13 28,2 11,7   Kalm 3,2 1020,9 36 -
10:18 27,9 11,9 3,2 Noorden 3,2 1021,2 37 -
10:23 28,1 11,2 1,4 NNO 3,2 1020,9 35 -
10:28 28,8 11,8 4,7 NNW 6,4 1020,9 35 -
10:33 29,1 11,2 4,7 NW 8,0 1020,9 33 -
10:38 29,2 11,3 6,4 NW 6,4 1020,9 33 -
10:43 29,3 10,9 1,4 NNW 9,7 1020,9 32 -
10:48 29,3 11,4 1,4 Noorden 11,3 1020,9 33 -
10:53 29,4 11,0 3,2 NNW 8,0 1020,9 32 -
10:58 29,7 11,2 4,7 NW 4,8 1020,9 32 -
11:03 29,8 11,8 1,4 NNO 8,0 1020,5 33 -
11:09 30,0 10,5 3,2 NNW 8,0 1020,5 30 -
11:14 30,3 10,8 3,2 Noorden 11,3 1020,5 30 -
11:19 30,4 11,4   Kalm 4,8 1020,5 31 -
11:24 30,6 10,5 7,9 NNW 8,0 1020,5 29 -
11:29 31,0 9,8 1,4 NO 8,0 1020,5 27 -
11:34 31,2 10,5 3,2 NNO 8,0 1020,5 28 -
11:39 31,3 10,6 1,4 NO 6,4 1020,5 28 -
11:44 31,1 10,4 3,2 Noorden 11,3 1020,2 28 -
11:49 30,9 10,8 6,4 NNO 12,9 1020,2 29 -
11:54 31,2 10,5 3,2 Noorden 8,0 1020,2 28 -
11:59 31,3 10,1 7,9 NW 9,7 1020,2 27 -
12:04 31,2 10,5 3,2 ONO 8,0 1020,2 28 -
12:09 31,6 10,9 1,4 OZO 3,2 1020,2 28 -
12:14 31,9 10,6 3,2 NW 6,4 1020,2 27 -
12:19 31,7 11,0 3,2 NNO 8,0 1020,2 28 -
12:24 31,8 11,0   Kalm 4,8 1020,2 28 -
12:29 31,8 9,9 1,4 ONO 6,4 1019,9 26 -
12:34 32,1 10,7 3,2 NNW 8,0 1019,9 27 -
12:39 32,4 10,4   Kalm 9,7 1019,9 26 -
12:44 31,7 11,5 1,4 NNW 11,3 1019,9 29 -
12:49 32,0 11,2 6,4 NNO 9,7 1019,9 28 -
12:54 32,2 11,4 4,7 NNW 6,4 1019,9 28 -
12:59 31,9 11,1 7,9 NW 9,7 1019,9 28 -
13:05 32,1 11,8 3,2 Noorden 8,0 1019,5 29 -

Download your copy of this data-set  here

Our weather-data as stored at Weather Underground. Script ontwikkeld door Jim McMurry. Aangepast voor de template door Leuven-Template.eu

U vindt ons ook hier:

Het Weer Aktueel

European Weather Network

Weather Underground

Apparatuur in gebruik:

Weerstation
Oregon WMR 200

Webleverancier
one.com

Oregon WMR 200

one.com